Weather Roundup
Issued by NWS Corpus Christi, TX

Home | Current Version | Previous Version | Text Only | Print | Product List | Glossary On
Versions: 1 2 3 4 5 6 7 8 9 10 11 12 13 14 15 16 17 18 19 20 21 22 23 24 25 26 27 28 29 30 31 32 33 34 35 36 37 38 39 40 41 42 43 44 45 46 47 48 49 50
000
ASUS44 KCRP 210510
HRRCRP

SOUTH TEXAS REGIONAL WEATHER ROUNDUP
NATIONAL WEATHER SERVICE CORPUS CHRISTI TX
1200 AM CDT TUE OCT 21 2014


TXZ229>244-210600-
...CORPUS CHRISTI AREA OBSERVATIONS...

CITY           SKY/WX    TMP DP  RH WIND       PRES   REMARKS
CORPUS CHRISTI PTCLDY    75  70  84 E9        29.97F
NAS CORPUS CHR CLEAR     76  73  91 E13       29.96F
ROCKPORT       CLEAR     76  69  79 E12       29.98F
KINGSVILLE NAS PTCLDY    72  72 100 N3        29.97S
ALICE          PTCLDY    70  69  97 NE5       29.98F FOG
FALFURRIAS     CLEAR     70  68  95 NE5       29.97S
$$

...VICTORIA AREA OBSERVATIONS...

CITY           SKY/WX    TMP DP  RH WIND       PRES   REMARKS
VICTORIA       CLEAR     67  63  87 E5        30.01F
BEEVILLE       FAIR      70  68  95 E6        30.00F
PLEASANTON     CLEAR     65  58  78 NE3       30.02F
SAN ANTONIO    MOCLDY    70  59  68 NE5       30.04S
$$

...LAREDO AREA OBSERVATIONS...

CITY           SKY/WX    TMP DP  RH WIND       PRES   REMARKS
LAREDO         CLEAR     72  68  87 E6        30.01F
COTULLA        CLEAR     72  63  73 SE7       30.00S
DEL RIO        CLOUDY    72  60  66 E6        30.01R
MCALLEN        PTCLDY    73  70  90 NE5       29.96S
HEBBRONVILLE   CLEAR     70  67  92 NE6       30.00S
$$

...OTHER TEXAS OBSERVATIONS...

CITY           SKY/WX    TMP DP  RH WIND       PRES   REMARKS
BROWNSVILLE    PTCLDY    75  69  81 NE3       29.94S
HOUSTON        MOCLDY    64  58  80 NE5       30.02F
COL. STATION   MOCLDY    67  60  78 NE3       30.03F
AUSTIN         PTCLDY    61  59  93 CALM      30.04S
WACO           CLEAR     60  58  92 CALM      30.05F
FORT WORTH     PTCLDY    67  59  75 SE3       30.04F
WICHITA FALLS  CLEAR     65  58  78 S9        30.04S
LUBBOCK        PTCLDY    59  52  77 S5        30.11S
EL PASO        PTCLDY    62  55  77 N8        30.08R
$$

...MARINE OBSERVATIONS...

STATION/POSITION TIME  SKY/WX   TEMP    WIND        PRES    VSBY  WAVE   SWELL
                                AIR SEA DIR/SP/G                  HT/PER HT/PER
                 (UTC)          (F)     (DEG/KT/KT) (MB)    (MI)  (FT/S) (FT/S)
PORT ARANSAS     0500            78 78   70/ 17/ 19 1015.2F
BUOY 90 E PORT A 0500            78 81   60/ 16/ 19 1015.0F         5/ 6
BUOY 45 SE BAFFI 0500            79 81   70/ 17/ 21 1013.6F         4/ 6   2/13
BUOY 200 E PT IS 0500            80 82   70/ 16/ 17 1012.6F         5/ 7   2/11
BUOY 15 E GALVES 0500            76 78   70/ 14/ 16 1015.6F         2/ 5
$$


USA.gov is the U.S. government's official web portal to all federal, state and local government web resources and services.